DMSP 5D-2 F13 DEB

Satellite information

Favourite Embed

Satellite Type and Status

DEBRISIN ORBIT

Key statistics

Satellite DMSP 5D-2 F13 DEB at a glance.

Uptime

11223

Days in orbit

Revolutions

≈ 14.5

Per day

Orbit

SSO

Sun Synchronous Orbit

Inclination

98.6

Latest

Satellite identification and parameters

Extended collection of information and parameters for DMSP 5D-2 F13 DEB.

Object identification

Identified? True

Debris? True

Object name: DMSP 5D-2 F13 DEB

International designator: 1995-015DK

Object number (NORAD): 40523

Object ID (CCSDS): 40523

Country: UNITED STATES OF AMERICA (US)

Current information (Y/N): Y

RCS size: SMALL

Orbital parameters

Period: 99.417 minutes

Inclination: 98.6161 deg

SMA: 7108.853 km

Apoapsis: 739.439 km

Periapsis: 721.996 km

RAAN: 33.8109 deg

Eccentricy: 0.00122683

Argument of periapsis: 66.1465 deg

Mean anomaly: 294.1012 deg

Mean motion: 14.48449913 rev/day

Mean motion (dot): 0.00012064 rev/day2

B* drag term: 0.0032220617 1/REarth

Two-line elements (TLE)

Creation date: Dec. 10, 2025, 7:58 p.m.

Reference frame: TEME

Reference center: EARTH

Epoch: Dec. 10, 2025, 8:34 a.m. UTC

TLE line 0: 0 DMSP 5D-2 F13 DEB

TLE line 1: 1 40523U 95015DK 25344.35745841 .00012064 00000-0 32221-2 0 9994

TLE line 2: 2 40523 98.6161 33.8109 0012268 66.1465 294.1012 14.48449913558439

Live tracking on map

Real-time ground track for satellite DMSP 5D-2 F13 DEB.

In-orbit conjunctions

A list of the most updated potential collisions computed for object DMSP 5D-2 F13 DEB.

Target Orbit TCA Probability of collision Miss distance Type
COSMOS 614 LEO 2025-05-19 19:46:58 0.0006999952 56.0 (m) PAYLOAD

Associated space launch

Military meteorological satellite

DMSP 5D-2 F13 DEB was lifted into orbit during the mission ‘Atlas E | DMSP-5D2 F13’, on board a Atlas E space rocket.

The launch took place on March 24, 1995, 2:05 p.m. from Space Launch Complex 3W.

For more information about the launch, click the button.

Launch to space Atlas E | DMSP-5D2 F13
Atlas E | DMSP-5D2 F13

Agency: N/A

Status: Launch Successful

Launch date: March 24, 1995, 2:05 p.m. UTC

Rocket: Atlas E

Launch pad: Space Launch Complex 3W

Location: Vandenberg SFB, CA, USA

...

Latest news about this satellite

There are no fresh news available about this satellite. Check back as we update our databases every day.


Newsletter sign-up

Weekly statistics, charts and insights to help you stay on top of the space industry.